sat.trackr.live / text

‹ back to catalog

STARLINK-35569

NORAD 66471 · 2025-262R

PAYLOAD ACTIVE UNKNOWN

§ Identity

Operator
Country
US
Launch date
2025-11-15
Launch site
AFETR
Launch vehicle
Mass (kg)
RCS (m²)

Purposes: comms

External: N2YO · Heavens-Above · Gunter

§ Orbital elements

Epoch: 2026-05-24T15:25:31.593792Z

Period
94.27 min
Inclination
42.9996°
Eccentricity
0.0001587
Mean motion
15.27585394 rev/d
Perigee alt
481.9 km
Apogee alt
484.1 km
Semi-major
6,861.2 km
B*
2.4753e-4
RAAN
227.1211°
Arg perigee
273.4758°
Mean anomaly
86.5912°
Rev number
3,052

§ Raw data

STARLINK-355691 66471U 25262R   26144.64272678  .00006557  00000+0  24753-3 0  99962 66471  42.9996 227.1211 0001587 273.4758  86.5912 15.27585394 30528

JSON: /api/v1/satellites/66471 · /tle

For live sub-satellite position, see the globe view (requires WebGL).

§ Visibility from observer

Set your observer location to see the next 7 days of passes ≥ 10°. The values pass through the URL so the page stays shareable.

No JS? Fill the form by hand. The geolocation button needs JavaScript.